Station History

Weather Underground - logo

Station Historical Data
 
Daily Summary for May 21, 2018 Units:  Metric    English   Both
« Previous Day
Next Day »
Daily Weekly Monthly Yearly Custom
  Current: High: Low: Average:
Temperature: 24.4 °C -17.8 °C 12 °C 16.7 °C
Dew Point: 12.1 °C -17.8 °C 8.9 °C 10.1 °C
Humidity: 46 % Humidity % 44 % 66 %
Wind Speed: 3.7 km/h 0 km/h 0 km/h 1.6 km/h
Wind Gust: 3.7 km/h 0 km/h - -
Wind:South - - SW
Pressure: 1009 hPa 0 hPa 1008.4 hPa -
Precipitation: 0 mm      
Historical Graphs
 
 
Tabular Data for May 21, 2018
Time Temperature Dew Point Pressure Wind Wind Speed Wind Gust Humidity Rainfall Rate (Hourly)
-17.8 °C -17.8 °C 0 hPa Calm     Humidity % 0 mm
00:03 17.8 °C 10.2 °C 1008.7 hPa NW 5.6 km/h 5.6 km/h 61 % 0 mm
00:08 17.7 °C 10.3 °C 1008.7 hPa WNW 5.6 km/h 5.6 km/h 62 % 0 mm
00:13 17.6 °C 10.2 °C 1008.7 hPa NW 1.9 km/h   62 % 0 mm
00:18 17.5 °C 10.1 °C 1008.7 hPa NW 3.7 km/h 3.7 km/h 62 % 0 mm
00:23 17.4 °C 10.5 °C 1008.7 hPa Calm     64 % 0 mm
00:28 17.3 °C 10.2 °C 1008.7 hPa NW 3.7 km/h 3.7 km/h 63 % 0 mm
00:33 17.2 °C 10.3 °C 1008.7 hPa WNW 1.9 km/h 1.9 km/h 64 % 0 mm
00:35 17.2 °C 10.3 °C 1008.7 hPa Calm     64 % 0 mm
00:40 17.1 °C 10.2 °C 1008.7 hPa WNW 3.7 km/h 3.7 km/h 64 % 0 mm
00:45 17 °C 10.4 °C 1008.7 hPa NW 3.7 km/h 3.7 km/h 65 % 0 mm
00:50 16.9 °C 10.3 °C 1008.7 hPa Calm   0.2 km/h 65 % 0 mm
00:55 16.8 °C 10.4 °C 1008.7 hPa NW 1.6 km/h 1.6 km/h 66 % 0 mm
01:00 16.7 °C 10.3 °C 1008.7 hPa NW 1.9 km/h   66 % 0 mm
01:05 16.6 °C 10.2 °C 1008.7 hPa Calm     66 % 0 mm
01:10 16.6 °C 10.4 °C 1008.7 hPa Calm     67 % 0 mm
01:15 16.4 °C 10.3 °C 1008.7 hPa West 1.9 km/h 1.9 km/h 67 % 0 mm
01:20 16.3 °C 10.2 °C 1008.7 hPa Calm     67 % 0 mm
01:25 16.3 °C 10.3 °C 1008.7 hPa Calm     68 % 0 mm
01:30 16.3 °C 10.1 °C 1008.7 hPa NW 1.9 km/h 1.9 km/h 67 % 0 mm
01:35 16.3 °C 10.1 °C 1008.7 hPa NNW 3.2 km/h 3.2 km/h 67 % 0 mm
01:40 16.2 °C 10.3 °C 1008.7 hPa NW 1.9 km/h 1.9 km/h 68 % 0 mm
01:45 16.1 °C 10.2 °C 1008.4 hPa NW 1.9 km/h 1.9 km/h 68 % 0 mm
01:50 16.1 °C 10.2 °C 1008.4 hPa Calm     68 % 0 mm
01:55 15.9 °C 10.1 °C 1008.7 hPa Calm     68 % 0 mm
02:00 15.9 °C 10.1 °C 1008.7 hPa Calm   0.3 km/h 68 % 0 mm
02:05 15.9 °C 10.1 °C 1008.7 hPa Calm     68 % 0 mm
02:11 15.9 °C 10 °C 1008.7 hPa Calm     68 % 0 mm
02:16 15.8 °C 9.9 °C 1008.7 hPa NW 1.9 km/h 2.6 km/h 68 % 0 mm
02:21 15.8 °C 9.9 °C 1008.7 hPa WNW 1.9 km/h 1.9 km/h 68 % 0 mm
02:26 15.7 °C 9.8 °C 1008.7 hPa Calm     68 % 0 mm
02:31 15.6 °C 9.7 °C 1008.7 hPa Calm     68 % 0 mm
02:36 15.5 °C 9.6 °C 1008.7 hPa NW 1.9 km/h 1.9 km/h 68 % 0 mm
02:41 15.4 °C 9.5 °C 1008.7 hPa NNW 3.7 km/h 3.7 km/h 68 % 0 mm
02:46 15.4 °C 9.5 °C 1008.7 hPa NW 3.7 km/h 3.7 km/h 68 % 0 mm
02:51 15.3 °C 9.4 °C 1008.7 hPa Calm     68 % 0 mm
02:56 15.3 °C 9.4 °C 1008.7 hPa Calm     68 % 0 mm
03:01 15.2 °C 9.5 °C 1008.7 hPa Calm     69 % 0 mm
03:06 15.1 °C 9.6 °C 1008.7 hPa Calm   0.2 km/h 70 % 0 mm
03:11 15 °C 9.8 °C 1008.7 hPa Calm     71 % 0 mm
03:16 14.9 °C 9.9 °C 1008.7 hPa WNW 1.6 km/h   72 % 0 mm
03:21 14.8 °C 9.8 °C 1008.7 hPa Calm     72 % 0 mm
03:26 14.8 °C 9.8 °C 1008.7 hPa Calm     72 % 0 mm
03:31 14.7 °C 9.9 °C 1008.7 hPa Calm     73 % 0 mm
03:36 14.5 °C 9.7 °C 1008.7 hPa Calm     73 % 0 mm
03:41 14.4 °C 9.4 °C 1008.7 hPa WSW 1.6 km/h   72 % 0 mm
03:46 14.3 °C 9.6 °C 1008.7 hPa WSW 1.6 km/h 1.6 km/h 73 % 0 mm
03:51 14.3 °C 9.3 °C 1008.7 hPa WSW 1.9 km/h   72 % 0 mm
03:56 14.2 °C 9.2 °C 1008.7 hPa Calm     72 % 0 mm
04:01 14.1 °C 9.1 °C 1008.7 hPa Calm     72 % 0 mm
04:06 14 °C 9.4 °C 1008.7 hPa Calm     74 % 0 mm
04:11 13.9 °C 9.1 °C 1008.7 hPa Calm     73 % 0 mm
04:16 13.8 °C 9.2 °C 1008.7 hPa Calm     74 % 0 mm
04:21 13.6 °C 9.4 °C 1008.7 hPa Calm     76 % 0 mm
04:27 13.4 °C 9.2 °C 1008.7 hPa Calm     76 % 0 mm
04:32 13.2 °C 9.3 °C 1008.7 hPa Calm     77 % 0 mm
04:37 13.1 °C 9.2 °C 1009 hPa Calm     77 % 0 mm
04:42 13 °C 9.3 °C 1009 hPa Calm     78 % 0 mm
04:47 12.9 °C 9.2 °C 1008.7 hPa Calm     78 % 0 mm
04:52 12.8 °C 9.3 °C 1009 hPa Calm     79 % 0 mm
04:57 12.8 °C 9.3 °C 1009 hPa Calm     79 % 0 mm
05:02 12.7 °C 9.3 °C 1008.7 hPa Calm     80 % 0 mm
05:07 12.6 °C 9.2 °C 1009 hPa Calm     80 % 0 mm
05:12 12.5 °C 9.2 °C 1009 hPa Calm     80 % 0 mm
05:17 12.4 °C 9.2 °C 1009 hPa Calm     81 % 0 mm
05:22 12.3 °C 9.1 °C 1009 hPa Calm     81 % 0 mm
05:27 12.2 °C 9 °C 1009 hPa Calm     81 % 0 mm
05:32 12.1 °C 9.1 °C 1009.4 hPa Calm     82 % 0 mm
05:37 12.1 °C 8.9 °C 1009.4 hPa Calm     81 % 0 mm
05:42 12 °C 9 °C 1009.4 hPa Calm     82 % 0 mm
05:47 12.1 °C 9.1 °C 1009.4 hPa Calm     82 % 0 mm
05:52 12.2 °C 9.1 °C 1009.4 hPa Calm     81 % 0 mm
05:57 12.2 °C 9.2 °C 1009.4 hPa Calm     82 % 0 mm
06:02 12.2 °C 9.2 °C 1009.4 hPa Calm     82 % 0 mm
06:07 12.2 °C 9.2 °C 1009.4 hPa Calm     82 % 0 mm
06:12 12.2 °C 9.4 °C 1009.4 hPa Calm     83 % 0 mm
06:17 12.2 °C 9.4 °C 1009.7 hPa WSW 1.9 km/h   83 % 0 mm
06:23 12.2 °C 9.2 °C 1009.7 hPa Calm     82 % 0 mm
06:28 12.3 °C 9.5 °C 1009.7 hPa Calm     83 % 0 mm
06:33 12.3 °C 9.5 °C 1009.7 hPa Calm     83 % 0 mm
06:38 12.4 °C 9.6 °C 1009.7 hPa Calm     83 % 0 mm
06:43 12.6 °C 9.7 °C 1009.7 hPa Calm     83 % 0 mm
06:48 12.7 °C 9.7 °C 1010 hPa Calm     82 % 0 mm
06:53 12.8 °C 9.8 °C 1010 hPa Calm     82 % 0 mm
06:58 13 °C 10 °C 1010 hPa Calm     82 % 0 mm
07:03 13.2 °C 10 °C 1010 hPa Calm     81 % 0 mm
07:08 13.5 °C 10.1 °C 1010 hPa Calm     80 % 0 mm
07:13 13.9 °C 10.1 °C 1010 hPa Calm     78 % 0 mm
07:18 14.5 °C 10.3 °C 1010 hPa Calm     76 % 0 mm
07:23 14.7 °C 9.9 °C 1010.4 hPa Calm     73 % 0 mm
07:28 14.8 °C 10 °C 1010.4 hPa WNW 1.9 km/h 1.9 km/h 73 % 0 mm
07:33 15 °C 10.2 °C 1010.4 hPa Calm     73 % 0 mm
07:38 15.6 °C 10.6 °C 1010.4 hPa Calm     72 % 0 mm
07:43 15.9 °C 10.3 °C 1010.4 hPa Calm   0.3 km/h 69 % 0 mm
07:48 15.5 °C 9.6 °C 1010.4 hPa West 3.7 km/h   68 % 0 mm
07:53 15.2 °C 9.9 °C 1010.4 hPa WNW 1.9 km/h   71 % 0 mm
07:58 15.3 °C 10.1 °C 1010.4 hPa North 1.9 km/h   71 % 0 mm
08:03 15.5 °C 10.1 °C 1010.4 hPa SSE 1.9 km/h   70 % 0 mm
08:08 15.8 °C 10.2 °C 1010.7 hPa Calm     69 % 0 mm
08:13 16.1 °C 10.2 °C 1010.7 hPa Calm     68 % 0 mm
08:18 16 °C 9.7 °C 1010.7 hPa West 1.9 km/h 1.9 km/h 66 % 0 mm
08:23 15.8 °C 9.5 °C 1010.7 hPa Calm     66 % 0 mm
08:28 15.9 °C 9.8 °C 1010.7 hPa NNE 1.9 km/h 1.9 km/h 67 % 0 mm
08:33 16.2 °C 10.1 °C 1010.7 hPa NW 1.9 km/h 1.9 km/h 67 % 0 mm
08:38 16.6 °C 10.2 °C 1010.7 hPa North 1.9 km/h 1.9 km/h 66 % 0 mm
08:43 16.8 °C 10.2 °C 1010.7 hPa South 3.7 km/h 3.7 km/h 65 % 0 mm
08:49 16.9 °C 10.1 °C 1010.7 hPa West 5.6 km/h 5.6 km/h 64 % 0 mm
08:54 17.2 °C 10.6 °C 1011.1 hPa Calm     65 % 0 mm
08:59 17.8 °C 10.9 °C 1011.1 hPa SE 1.9 km/h 1.9 km/h 64 % 0 mm
09:04 18.2 °C 10.8 °C 1011.1 hPa SSE 3.7 km/h 3.7 km/h 62 % 0 mm
09:09 18.2 °C 10.3 °C 1011.1 hPa NW 1.9 km/h 1.9 km/h 60 % 0 mm
09:14 18.2 °C 10.8 °C 1011.1 hPa NW 1.9 km/h 1.9 km/h 62 % 0 mm
09:19 18.4 °C 11 °C 1010.7 hPa South 1.9 km/h 1.9 km/h 62 % 0 mm
09:24 18.7 °C 10.7 °C 1011.1 hPa South 5.6 km/h 5.6 km/h 60 % 0 mm
09:29 18.4 °C 10.5 °C 1010.7 hPa SSE 1.9 km/h 1.9 km/h 60 % 0 mm
09:34 18.7 °C 11.1 °C 1010.7 hPa SE 3.7 km/h 3.7 km/h 61 % 0 mm
09:39 19.1 °C 10.9 °C 1010.7 hPa North 3.7 km/h 3.7 km/h 59 % 0 mm
09:44 19.3 °C 11.1 °C 1010.7 hPa SE 1.9 km/h 1.9 km/h 59 % 0 mm
09:49 19.4 °C 10.9 °C 1010.7 hPa ESE 1.9 km/h 1.9 km/h 58 % 0 mm
09:54 19.3 °C 10.3 °C 1010.7 hPa ESE 5.6 km/h 5.6 km/h 56 % 0 mm
09:59 19.2 °C 10.2 °C 1010.7 hPa NW 1.9 km/h   56 % 0 mm
10:04 19.4 °C 11.5 °C 1010.7 hPa North 1.9 km/h 1.9 km/h 60 % 0 mm
10:09 19.7 °C 10.7 °C 1010.7 hPa West 1.9 km/h   56 % 0 mm
10:14 19.4 °C 11.2 °C 1010.7 hPa South 1.9 km/h 1.9 km/h 59 % 0 mm
10:19 19.1 °C 10.7 °C 1010.7 hPa NW 1.9 km/h 1.9 km/h 58 % 0 mm
10:24 19 °C 11.1 °C 1010.7 hPa WNW 1.9 km/h   60 % 0 mm
10:29 18.9 °C 10.8 °C 1010.7 hPa WNW 3.7 km/h 3.7 km/h 59 % 0 mm
10:34 18.8 °C 10.7 °C 1010.7 hPa NNW 5.6 km/h 5.6 km/h 59 % 0 mm
10:39 19.1 °C 11.4 °C 1010.4 hPa NNW 3.7 km/h 3.7 km/h 61 % 0 mm
10:44 19.7 °C 12.2 °C 1010.4 hPa South 1.6 km/h 1.6 km/h 62 % 0 mm
10:49 20.1 °C 11.6 °C 1010.4 hPa WSW 3.7 km/h 3.7 km/h 58 % 0 mm
10:54 20.3 °C 10.9 °C 1010.4 hPa NNW 3.7 km/h 3.7 km/h 55 % 0 mm
10:59 20.3 °C 10.9 °C 1010.4 hPa NW 1.9 km/h 2.1 km/h 55 % 0 mm
11:04 20.2 °C 10.9 °C 1010.4 hPa West 3.7 km/h 3.7 km/h 55 % 0 mm
11:09 20.2 °C 10.9 °C 1010.4 hPa East 3.7 km/h 3.7 km/h 55 % 0 mm
11:14 20.2 °C 11.2 °C 1010.4 hPa NW 1.6 km/h 1.6 km/h 56 % 0 mm
11:19 20.3 °C 11.3 °C 1010.4 hPa NNW 5.6 km/h 5.6 km/h 56 % 0 mm
11:24 20.8 °C 11.7 °C 1010.4 hPa East 1.9 km/h 1.9 km/h 56 % 0 mm
11:30 21.1 °C 12.5 °C 1010.4 hPa South 3.7 km/h 3.7 km/h 58 % 0 mm
11:35 21.3 °C 11 °C 1010.4 hPa North 5.6 km/h 5.6 km/h 52 % 0 mm
11:40 21.4 °C 12.3 °C 1010 hPa NW 3.7 km/h 3.7 km/h 56 % 0 mm
11:45 21.7 °C 12.5 °C 1010.4 hPa SSE 5.6 km/h 5.6 km/h 56 % 0 mm
11:50 22.1 °C 11.5 °C 1010 hPa SE 1.9 km/h 1.9 km/h 51 % 0 mm
11:55 22.6 °C 12.2 °C 1010 hPa Calm     52 % 0 mm
12:00 22.6 °C 11.6 °C 1010 hPa NNE 3.7 km/h 3.7 km/h 50 % 0 mm
12:05 22.5 °C 12.2 °C 1010 hPa West 1.9 km/h 1.9 km/h 52 % 0 mm
12:10 22.3 °C 11.1 °C 1010 hPa NNW 3.7 km/h 3.7 km/h 49 % 0 mm
12:15 22.4 °C 12.1 °C 1010 hPa SSW 3.7 km/h 3.7 km/h 52 % 0 mm
12:20 22.6 °C 11.1 °C 1010 hPa ESE 1.9 km/h 1.9 km/h 48 % 0 mm
12:25 22.6 °C 11.7 °C 1010 hPa NNE 3.7 km/h 3.7 km/h 50 % 0 mm
12:30 22.7 °C 11.2 °C 1009.7 hPa NE 1.9 km/h   48 % 0 mm
12:35 23 °C 12 °C 1009.7 hPa NNW 5.6 km/h 5.6 km/h 50 % 0 mm
12:40 23.2 °C 11.6 °C 1009.7 hPa NE 3.7 km/h 3.7 km/h 48 % 0 mm
12:45 23.1 °C 11.8 °C 1009.7 hPa SE 1.9 km/h   49 % 0 mm
12:50 23.2 °C 11.6 °C 1009.7 hPa NW 5.6 km/h 5.6 km/h 48 % 0 mm
12:55 23.3 °C 11.7 °C 1009.7 hPa WNW 1.9 km/h 1.9 km/h 48 % 0 mm
13:00 23.6 °C 11.3 °C 1009.7 hPa WNW 5.6 km/h 5.6 km/h 46 % 0 mm
13:05 23.7 °C 12.1 °C 1009.4 hPa South 3.7 km/h 3.7 km/h 48 % 0 mm
13:10 24.2 °C 12.4 °C 1009.4 hPa WNW 5.6 km/h 5.6 km/h 48 % 0 mm
13:15 24.5 °C 12.1 °C 1009.4 hPa SW 3.7 km/h 3.7 km/h 46 % 0 mm
13:20 24.6 °C 12.5 °C 1009.4 hPa SE 1.9 km/h 1.9 km/h 47 % 0 mm
13:25 24.5 °C 11.4 °C 1009.4 hPa NNW 3.7 km/h 3.7 km/h 44 % 0 mm
13:30 24.4 °C 12.1 °C 1009 hPa South 3.7 km/h 3.7 km/h 46 % 0 mm
Park Place, Exeter, Tulare County, California, USA
Compliments of Weather Underground - 2 mb